Location: Borderline Observatory
(42.7345°N, 72.8696°W)
Time: 01:07:25
(UTC-04:00)

Daily predictions for brighter satellites

Satellite Brightness Start Highest point End
(mag) Time Altitude Azimuth Time Altitude Azimuth Time Altitude Azimuth
Cosmos 2263 Rocket 4.3 00:05:08 10° NW 00:07:11 18° WNW 00:07:11 18° WNW
Lacrosse 4 Rocket 4.5 00:14:41 13° NNE 00:14:41 13° NNE 00:15:09 10° NNE
ATLAS 3B R/B 4.1 00:23:00 30° ENE 00:23:00 30° ENE 00:26:47 10° NE
Cosmos 2237 Rocket 4.3 00:27:00 19° NE 00:27:00 19° NE 00:28:37 10° NE
Cosmos 2333 Rocket 4.2 00:27:44 21° NE 00:27:44 21° NE 00:29:41 10° NE
COSMOS 2428 4.3 00:43:01 31° N 00:43:01 31° N 00:46:10 10° NNE
Cosmos 2278 Rocket 3.9 00:52:16 10° NNW 00:54:50 28° NNW 00:54:50 28° NNW
CZ-2C R/B 4.2 01:16:23 10° N 01:19:23 33° N 01:19:23 33° N
Cosmos 2219 Rocket 3.9 01:49:27 26° NNW 01:49:27 26° NNW 01:52:51 10° N
SL-16 R/B 3.3 02:05:24 40° N 02:05:24 40° N 02:09:03 10° NNE
Cosmos 2237 Rocket 3.8 02:08:49 28° NNW 02:08:49 28° NNW 02:12:31 10° N
Cosmos 2333 Rocket 3.9 02:09:43 26° NW 02:09:43 26° NW 02:13:33 10° N
ATLAS 3B R/B 3.5 02:10:14 47° NW 02:10:32 47° NW 02:17:37 10° NNE
ATLAS CENTAUR R/B 4.1 02:11:44 10° NNW 02:13:16 18° N 02:13:16 18° N
CZ-4C R/B 3.1 02:21:12 48° NNE 02:21:12 48° NNE 02:25:33 10° NE
COSMOS 2455 4.4 02:22:56 27° NW 02:22:56 27° NW 02:27:45 10° NNE
BREEZE-M DEB (TANK) 4.3 02:29:32 34° NNE 02:29:32 34° NNE 02:32:19 10° NE
S3M 4.3 02:30:21 60° ENE 02:30:21 60° ENE 02:36:02 10° NNE
ATLAS 5 CENTAUR R/B 4.1 02:33:43 16° E 02:33:43 16° E 02:35:51 10° ENE
SL-16 R/B 3.7 02:38:26 23° ESE 02:41:34 37° ENE 02:47:11 10° N
Cosmos 1603 4.1 02:47:15 59° N 02:47:15 59° N 02:51:55 10° NNE
Cosmos 1553 Rocket 4.0 02:49:20 75° NNE 02:49:20 75° NNE 02:54:54 10° N
Cosmos 1745 Rocket 4.0 02:46:08 10° N 02:52:20 82° NE 02:52:20 82° NE
BREEZE-M DEB (TANK) 4.2 03:00:55 45° NE 03:00:55 45° NE 03:05:31 10° E
Cosmos 1331 Rocket 4.5 02:55:38 10° NNW 03:00:06 59° NNE 03:00:06 59° NNE
CZ-2D R/B 3.3 02:57:04 10° NNE 03:01:48 33° E 03:02:30 32° ESE
USA 234 3.6 02:56:39 10° ENE 03:02:58 49° SE 03:03:20 48° SE
ARIANE 5 R/B 3.3 02:59:55 10° NNE 03:04:58 45° E 03:05:07 45° ESE
USA 238 DEB 4.5 03:05:39 38° WNW 03:06:47 41° NW 03:13:25 10° NNE
USA 238 4.4 03:05:46 38° WNW 03:06:53 41° NW 03:13:30 10° NNE
Cosmos 1726 4.3 03:10:38 23° N 03:10:38 23° N 03:12:08 10° N
ADEOS 3.7 03:05:34 10° NNE 03:10:23 72° NE 03:10:23 72° NE
Meteor 2-3 Rocket 3.8 03:05:08 10° N 03:10:56 76° E 03:11:18 73° ESE
Cosmos 1707 Rocket 4.5 03:14:54 47° NNE 03:14:54 47° NNE 03:18:07 10° N
Cosmos 1943 3.2 03:15:03 76° ESE 03:15:03 76° ESE 03:20:40 10° NNE
NOSS 3-2 (A) 3.6 03:20:43 59° WNW 03:21:16 62° NW 03:27:54 10° NNE
NPP 4.2 03:17:10 10° N 03:21:41 45° NW 03:21:41 45° NW
Cosmos 2369 Rocket 2.1 03:19:21 10° NNW 03:24:37 77° WNW 03:24:37 77° WNW
UNK 4.0 03:25:15 66° ENE 03:25:15 66° ENE 03:29:50 10° N
Cosmos 724 4.2 03:29:19 70° S 03:29:57 80° ESE 03:36:01 10° NE
NOSS 3-3 (A) 4.4 03:24:33 10° NW 03:31:50 57° WSW 03:33:13 51° SSW
NOSS 3-3 (C) 4.4 03:24:38 10° NW 03:31:57 57° WSW 03:33:31 49° SSW
Resurs 1-4 Rocket 2.3 03:27:34 10° NNE 03:32:50 65° ESE 03:33:46 54° SSE
CENTAUR R/B 3.4 03:32:55 31° SSE 03:34:58 40° ESE 03:41:11 10° NE
Cosmos 883 Rocket 4.3 03:35:07 64° SSW 03:36:04 80° W 03:42:14 10° N
Cosmos 1455 3.1 03:36:58 48° ENE 03:36:58 48° ENE 03:40:27 10° NNE
NOSS 3-2 (C) 3.7 03:37:46 51° W 03:38:53 59° NW 03:45:33 10° NNE
Centaur D-1A AC-31 3.9 03:38:23 34° SSW 03:38:53 34° SSW 03:44:29 10° SE
Cosmos 2251 Rocket 3.8 03:42:50 52° WNW 03:42:50 52° WNW 03:47:57 10° N
Cosmos 1943 Rocket 2.6 03:38:34 10° NNW 03:44:13 63° ENE 03:49:48 10° SE
Abrixas rocket 4.0 03:45:11 30° NNE 03:45:11 30° NNE 03:47:56 10° ENE
Okean O Rocket 3.4 03:42:08 10° NE 03:45:57 27° E 03:48:35 16° SE
SL-16 R/B 4.3 03:47:17 13° WNW 03:48:33 13° NW 03:51:17 10° NNW
Cosmos 2315 Rocket 3.9 03:51:10 45° SSW 03:53:15 82° W 03:59:35 10° N
SL-27 R/B 3.9 03:53:22 31° ESE 03:53:53 32° ESE 03:57:10 10° NE
Sich 1 Rocket 4.4 03:56:36 10° N 04:00:53 49° ENE 04:05:05 10° SSE
Cosmos 2263 4.2 03:55:34 10° NNW 04:01:16 58° WSW 04:03:20 37° S
ERS-2 3.4 03:57:55 10° N 04:00:25 31° NW 04:00:25 31° NW
Meteor 2-11 Rocket 4.3 03:59:03 39° SSW 04:01:29 83° W 04:07:35 10° N
BREEZE-M DEB (TANK) 4.0 04:02:42 24° E 04:02:42 24° E 04:03:51 10° E
MTI 4.0 04:05:52 72° ENE 04:05:52 72° ENE 04:09:10 10° N
CZ-4C R/B 4.1 04:06:22 15° WNW 04:09:08 20° NNW 04:13:41 10° NNE
Cosmos 1825 3.4 04:07:31 10° N 04:11:09 41° ENE 04:14:44 10° SSE
Cosmos 1656 Rocket 4.4 04:08:15 10° NNW 04:13:33 51° ENE 04:18:48 10° SE
ATLAS 5 CENTAUR R/B 1.9 04:15:16 45° WSW 04:16:39 64° NW 04:21:54 10° NNE
Cosmos 2242 Rocket 4.5 04:22:02 32° W 04:22:12 32° WNW 04:26:20 10° N
Cosmos 1862 Rocket 3.5 04:21:36 45° SW 04:22:44 64° W 04:27:07 10° N
SL-16 R/B 3.0 04:23:32 32° SW 04:25:09 37° W 04:30:51 10° NNW
Okean 1-7 4.4 04:28:10 10° SSE 04:32:08 37° E 04:36:10 10° NNE
EO 1 Del DPAF 4.1 04:35:15 31° W 04:35:15 31° W 04:38:20 10° NNW
UNKNOWN OBJECT B 3.4 04:32:59 10° N 04:36:23 35° WNW 04:36:50 34° W
Cosmos 1862 3.2 04:32:47 10° N 04:36:48 84° W 04:40:45 10° S
Okean 2 Rocket 4.2 04:32:30 10° N 04:36:53 47° ENE 04:41:14 10° SSE
Nadezhda 1 Rocket 4.1 04:31:22 10° S 04:37:36 78° E 04:43:58 10° N
CZ-2C R/B 3.5 04:35:43 10° S 04:40:08 74° WSW 04:44:35 10° NNW
CZ-2D R/B 2.9 04:37:11 10° N 04:41:49 32° WNW 04:43:49 24° WSW
Cosmos 1184 Rocket 4.1 04:40:20 10° NNW 04:42:34 25° WNW 04:42:34 25° WNW
ARIANE 5 R/B 3.8 04:39:38 10° NNW 04:43:47 24° WNW 04:45:26 21° W
SeaSat 1 2.4 04:40:04 10° SSE 04:44:55 60° WSW 04:49:49 10° NNW
Cosmos 1869 4.1 04:44:49 29° W 04:45:36 31° WNW 04:49:11 10° NNW
USA 234 3.6 04:39:38 10° NE 04:46:01 56° NNW 04:50:41 19° WSW
Cosmos 1733 Rocket 4.0 04:43:04 10° NNW 04:46:49 28° W 04:47:36 26° WSW
USA 129 4.2 04:47:07 12° E 04:47:35 14° ENE 04:48:25 10° NNE
Cosmos 389 Rocket 3.3 04:49:10 30° W 04:49:50 32° WNW 04:53:04 10° N
Cosmos 1782 Rocket 3.4 04:51:57 10° N 04:56:19 86° W 05:00:38 10° S
Cosmos 1933 3.6 04:54:19 20° SSW 04:56:59 51° W 05:01:00 10° N
CZ-4B R/B 2.6 04:55:28 10° N 04:59:07 68° WNW 05:02:25 13° SSW
Cosmos 2074 Rocket 4.2 04:56:06 10° NNW 05:02:02 48° W 05:07:58 10° SSW
COSMOS 2406 3.3 04:58:37 16° SW 05:03:12 62° WNW 05:08:56 10° NNE
Cosmos 2154 Rocket 4.1 04:59:46 10° N 05:06:08 90° WSW 05:12:29 10° S
AVUM R/B 4.0 05:03:26 10° S 05:06:32 50° ESE 05:09:47 10° NE
Cosmos 2184 Rocket 4.3 05:01:12 10° NNW 05:07:14 46° W 05:13:14 10° SSW
Atlas Centaur 2 3.7 05:05:15 10° SSW 05:07:44 14° SSE 05:10:30 10° SE
MOZ.5/SAFIR/RUBIN 5/SL-8 4.3 05:04:23 10° SSW 05:08:37 35° W 05:12:53 10° NNW
COSMOS 2487 2.7 05:07:38 10° SSW 05:11:14 75° ESE 05:14:51 10° NNE
Aureole 3 Rocket 3.8 05:04:20 10° SSW 05:11:15 69° W 05:16:08 10° N
Resurs 1-4 Rocket 3.7 05:08:40 10° NNW 05:12:09 18° WNW 05:14:50 13° W
Cosmos 1455 4.3 05:12:01 12° W 05:12:42 12° WNW 05:14:19 10° NW
CZ-4B R/B 3.3 05:08:36 10° N 05:13:46 54° WNW 05:18:54 10° SSW
CZ-4B DEB 4.3 05:08:48 10° N 05:14:11 60° WNW 05:19:32 10° SSW
ADEOS Rocket 3.7 05:08:26 10° NNE 05:16:14 86° ESE 05:23:58 10° SSW
Cosmos 1190 Rocket 4.0 05:11:14 10° SSW 05:16:24 74° WNW 05:21:37 10° NNE
Cosmos 1908 Rocket 4.4 05:12:47 10° NNW 05:16:35 29° W 05:20:21 10° SSW
Meteor 2-10 Rocket 4.3 05:15:57 10° S 05:21:42 65° E 05:27:19 10° NNE
Okean O Rocket 2.6 05:18:24 10° N 05:22:17 29° WNW 05:26:03 10° SW
Thor Agena Rocket 3.7 05:17:20 10° S 05:22:18 49° W 05:27:22 10° NNW
Abrixas rocket 2.5 05:19:00 10° WNW 05:22:20 70° NNE 05:25:40 10° ESE
ADEOS II 2.1 05:20:00 10° NNE 05:25:17 88° ESE 05:30:33 10° SSW
CENTAUR R/B 3.2 05:20:07 12° WSW 05:25:34 44° NW 05:32:16 10° NNE
Cosmos 2221 Rocket 4.1 05:21:31 10° SW 05:25:39 38° WNW 05:29:48 10° N
Cosmos 1943 Rocket 3.4 05:23:34 10° WNW 05:27:23 19° W 05:31:12 10° SW
Cosmos 2341 Rocket 4.0 05:22:36 10° N 05:28:55 78° W 05:35:14 10° S
SL-27 R/B 4.3 05:27:08 11° W 05:29:15 17° WNW 05:31:41 10° NNW
Okean-O 2.6 05:25:02 10° N 05:29:29 74° WNW 05:33:53 10° SSW
Cosmos 1408 4.1 05:29:47 10° NW 05:32:25 18° W 05:35:03 10° SW
Cosmos 2082 Rocket 4.1 05:28:29 10° SSE 05:33:25 31° ESE 05:38:21 10° NE
SL-8 Rocket 4.4 05:28:12 10° N 05:34:24 71° E 05:40:37 10° SSE
PSLV R/B 4.0 05:32:04 10° W 05:35:16 36° SSW 05:38:25 10° SE
Cosmos 1954 Rocket 4.2 05:30:13 10° SSW 05:35:22 77° ESE 05:40:36 10° NNE
